Weather in Rybreka

Russia / Republic of Karelia     61°17′16″N   35°31′00″E
temp.,
°C
wind,
m/s
gust,
m/s
humid.,
%
clouds,
%
prec.,
mm/h
press.,
hPa
HPBL,
m
4 march, thu
thu400:00−2wnw51385100 0.3 994549
03:00−4nw7159066 0.3 995750
06:00−6nnw5119497 0.2 997411
09:00−9nnw389695 0.3 998233
12:00−6nw369382 0.0 999375
15:00−4nnw369182 0.1 999535
18:00−7nw239481 0.1 99930
21:00−8nw269678 0.2 1000158
5 march, fri
fri500:00−10nw359784 0.1 1001137
03:00−10nnw389491 0.2 1003328
06:00−15nnw349365 0.0 100567
09:00−15nnw379533 0.0 1007196
12:00−11nw249253 0.0 1008384
15:00−9nnw359077 0.3 1010575
18:00−12nw339256 0.1 101158
21:00−15nw239428 0.1 101420
6 march, sat
sat600:00−16w22950 0.0 101521
03:00−16w229732 0.0 101621
06:00−17wsw229731 0.0 101520
09:00−15wsw359222 0.0 1014129
12:00−9sw47921 0.0 1012325
15:00−6sw598837 0.0 1009692
18:00−7ssw61388100 0.1 1004891
21:00−6ssw71592100 0.6 9971120
7 march, sun
sun700:00−5ssw71590100 0.3 991924
03:00−3ssw61392100 0.8 988808
06:00−8wnw51192100 1.0 987608
09:00−10wnw3882100 1.1 988336
12:00−8w2380100 0.0 990386
15:00−7nw128295 0.0 991522
18:00−11nnw2388100 0.0 99135
21:00−12nw3988100 0.0 992227
8 march, mon
mon800:00−9n51194100 0.3 994545
03:00−11n71294100 1.5 996676
06:00−11n71293100 1.0 999827
09:00−13n81392100 1.6 1002724
12:00−14n71191100 0.3 1005618
15:00−14n71191100 0.4 1009588
18:00−14n61290100 0.1 1012588
21:00−17n6119399 0.1 1015376